DateTimeUTC,F1_A11,F1_S11,BsB_S11,BsG_S11,BsR_S11,BbsB_S11,BbsG_S11,BbsR_S11,BaB_A11,BaG_A11,BaR_A11,Tu_S11,T_S11,Uu_S11,U_S11,P_S11,T1_A11
2021-07-19T16:00:00Z,00000200,20000000,,,,,,,-000.49,-000.12,-000.62,19.8,26.1,14.6,10.0,0674.4,31.1
2021-07-19T16:01:00Z,00000200,20000000,,,,,,,0000.11,-000.23,-000.10,19.8,26.1,14.6,10.0,0674.4,31.1
2021-07-19T16:02:00Z,00000200,20000000,,,,,,,0000.13,0000.12,-000.00,19.8,26.1,14.6,10.0,0674.4,31.1
2021-07-19T16:03:00Z,00000200,60000000,,,,,,,0000.14,-000.10,0000.13,19.8,26.1,14.6,10.0,0674.4,31.1
2021-07-19T16:04:00Z,00000200,40000000,-000.04,0000.09,0000.38,-000.00,0000.02,-000.06,0000.18,-000.01,0000.20,19.9,26.0,14.5,10.0,0675.3,31.1
2021-07-19T16:05:00Z,00000200,00000000,0000.19,0000.37,0000.09,-000.15,0000.19,-000.09,-000.31,0000.14,-000.15,19.9,25.9,14.6,10.1,0675.4,31.1
2021-07-19T16:06:00Z,00000200,00000000,-000.34,0000.31,0000.66,-000.11,0000.05,-000.24,0000.14,-000.10,-000.03,19.9,25.9,14.5,10.1,0675.4,31.1
2021-07-19T16:07:00Z,00000200,00000000,0000.52,0000.29,-000.06,0000.23,-000.07,0000.08,0000.08,0000.05,0000.29,19.9,25.9,14.7,10.2,0675.4,31.1
2021-07-19T16:08:00Z,00000200,00000000,0001.00,0000.11,0000.04,0000.29,-000.25,0000.01,0000.06,0000.35,0000.28,19.9,25.9,14.8,10.3,0675.4,31.1
2021-07-19T16:09:00Z,00000200,00000000,0000.32,0000.55,0000.12,-000.15,0000.02,-000.35,0000.03,-000.02,-000.12,19.9,25.9,14.9,10.4,0675.4,31.1
2021-07-19T16:10:00Z,00000200,00000000,0000.43,0000.34,-000.01,0000.09,0000.11,-000.04,0000.05,-000.22,-000.07,19.9,25.9,14.6,10.2,0675.4,31.1
2021-07-19T16:11:00Z,00000200,00000000,0000.98,0000.31,0000.07,0000.34,-000.11,-000.45,0000.01,0000.07,0000.33,20.0,25.9,14.9,10.4,0675.4,31.1
2021-07-19T16:12:00Z,00000200,00000000,-000.79,0000.40,0000.14,-000.32,-000.17,0000.08,-000.00,0000.00,-000.28,19.9,25.9,14.7,10.3,0675.4,31.1
2021-07-19T16:13:00Z,00000200,00000000,0000.77,0000.38,0000.05,-000.10,0000.00,0000.19,0000.58,0000.18,0000.10,20.0,25.9,14.8,10.4,0675.4,31.1
2021-07-19T16:14:00Z,00000200,00000000,0000.63,0000.06,0000.19,0000.21,0000.09,-000.09,-000.64,-000.07,-000.30,20.0,25.9,15.0,10.4,0675.4,31.1
2021-07-19T16:15:00Z,00000200,00000000,0000.67,0000.09,-000.11,0000.23,0000.04,-000.50,0000.26,0000.18,-000.18,20.0,25.9,14.5,10.1,0675.3,31.1
2021-07-19T16:16:00Z,00000200,00000000,0000.66,0000.05,0000.37,-000.23,0000.01,0000.02,0000.05,0000.16,0000.75,20.0,25.9,14.6,10.1,0675.4,31.1
2021-07-19T16:17:00Z,00000200,00000000,0000.66,0000.61,0000.50,0000.42,-000.07,0000.24,0000.04,-000.23,-000.25,20.0,25.9,14.9,10.4,0675.4,31.1
2021-07-19T16:18:00Z,00000200,00000000,0000.20,0000.10,0000.07,-000.21,0000.28,-000.49,0000.20,0000.31,0000.09,20.0,25.9,14.8,10.3,0675.4,31.1
2021-07-19T16:19:00Z,00000200,00000000,0000.72,0000.57,0000.22,-000.14,-000.18,0000.21,0000.21,0000.22,0000.23,20.0,25.9,14.9,10.4,0675.4,31.1
2021-07-19T16:20:00Z,00000200,00000000,-000.29,0000.39,0000.23,0000.05,0000.08,-000.08,-000.40,-000.16,-000.14,20.0,25.9,15.1,10.5,0675.4,31.1
2021-07-19T16:21:00Z,00000200,00000000,0000.14,0000.01,0000.04,0000.26,0000.10,0000.04,-000.18,-000.28,-000.25,20.0,25.9,14.8,10.3,0675.4,31.1
2021-07-19T16:22:00Z,00000200,00000000,0000.85,0000.18,-000.15,0000.06,0000.01,-000.10,0000.33,-000.15,0000.23,20.0,25.9,14.8,10.3,0675.3,31.1
2021-07-19T16:23:00Z,00000200,00000000,0000.49,0000.40,0000.12,-000.34,0000.21,-000.05,-000.07,0000.40,0000.03,20.0,25.9,14.7,10.2,0675.4,31.1
2021-07-19T16:24:00Z,00000200,00000000,0000.87,0000.42,0000.55,0000.02,-000.21,-000.05,0000.06,-000.03,0000.26,20.0,25.9,14.9,10.3,0675.3,31.1
2021-07-19T16:25:00Z,00000200,00000000,0000.59,0000.30,0000.29,-000.37,0000.40,0000.10,0000.22,0000.10,0000.22,20.0,25.9,14.8,10.3,0675.4,31.1
2021-07-19T16:26:00Z,00000200,00000000,0000.53,0000.05,-000.03,-000.24,0000.32,-000.22,0000.16,0000.33,0000.06,20.0,25.9,15.1,10.5,0675.4,31.1
2021-07-19T16:27:00Z,00000200,00000000,0000.77,0000.24,0000.47,-000.36,0000.25,0000.12,0000.23,0000.04,-000.00,20.0,25.9,15.1,10.5,0675.5,31.1
2021-07-19T16:28:00Z,00000200,00000000,0000.32,0000.48,0000.01,-000.22,0000.10,-000.35,0000.11,0000.23,0000.03,20.0,25.9,15.2,10.6,0675.5,31.1
2021-07-19T16:29:00Z,00000200,00000000,0000.82,0000.37,-000.12,0000.31,0000.04,-000.45,-000.02,-000.08,0000.16,20.0,25.9,15.4,10.7,0675.5,31.1
2021-07-19T16:30:00Z,00000200,00000000,0000.09,0000.51,0000.04,0000.16,-000.00,-000.13,0000.01,0000.27,0000.04,20.0,25.9,15.4,10.7,0675.5,31.1
2021-07-19T16:31:00Z,00000200,00000000,0000.39,0000.09,0000.21,0000.26,-000.13,-000.24,0000.21,-000.31,-000.11,20.0,25.9,15.2,10.6,0675.4,31.1
2021-07-19T16:32:00Z,00000200,00000000,0000.73,0000.16,-000.04,0000.45,0000.12,-000.04,0000.29,0000.61,0000.42,20.0,25.9,15.4,10.7,0675.5,31.1
2021-07-19T16:33:00Z,00000200,00000000,0000.11,0000.54,0000.24,0000.23,-000.25,0000.03,-000.20,-000.22,-000.22,20.0,25.9,15.6,10.8,0675.4,31.1
2021-07-19T16:34:00Z,00000200,00000000,0000.42,0000.44,0000.32,0000.69,0000.03,0000.08,0000.07,-000.02,0000.24,20.0,25.9,15.3,10.6,0675.5,31.1
2021-07-19T16:35:00Z,00000200,00000000,0000.65,0000.04,-000.02,0000.17,0000.05,0000.16,-000.18,-000.02,-000.14,20.0,25.9,15.4,10.7,0675.5,31.1
2021-07-19T16:36:00Z,00000200,00000000,0000.64,0000.34,0000.22,0000.13,-000.02,0000.08,0000.22,-000.04,-000.00,20.0,25.9,15.3,10.7,0675.4,31.1
2021-07-19T16:37:00Z,00000200,00000000,0000.30,-000.01,0000.03,-000.10,0000.13,-000.09,0000.41,0000.47,0000.34,20.0,25.9,15.4,10.7,0675.5,31.1
2021-07-19T16:38:00Z,00000200,00000000,0000.39,0000.14,0000.24,-000.28,-000.18,-000.15,-000.20,-000.17,0000.01,20.0,26.0,15.6,10.8,0675.5,31.1
2021-07-19T16:39:00Z,00000200,00000000,0000.91,0000.45,0000.11,0000.09,0000.25,-000.19,-000.13,0000.00,0000.03,20.0,25.9,15.6,10.8,0675.5,31.1
2021-07-19T16:40:00Z,00000200,00000000,0000.37,0000.39,0000.24,-000.36,-000.03,-000.11,0000.40,0000.34,0000.25,20.0,26.0,15.6,10.9,0675.5,31.1
2021-07-19T16:41:00Z,00000200,00000000,0000.56,0000.52,0000.38,-000.43,0000.20,0000.08,-000.34,-000.42,-000.12,20.0,25.9,15.5,10.8,0675.4,31.1
2021-07-19T16:42:00Z,00000200,00000000,0000.44,0000.21,0000.67,-000.61,-000.00,0000.01,0000.24,0000.33,0000.23,20.0,26.0,15.5,10.8,0675.4,31.1
2021-07-19T16:43:00Z,00000200,00000000,0000.03,0000.71,0000.21,0000.06,0000.24,0000.27,0000.30,0000.29,-000.30,20.0,26.0,15.5,10.8,0675.4,31.1
2021-07-19T16:44:00Z,00000200,00000000,0000.17,0000.49,0000.29,0000.64,0000.22,0000.23,-000.04,-000.38,0000.25,20.0,26.0,15.3,10.7,0675.4,31.1
2021-07-19T16:45:00Z,00000200,00000000,0000.84,0000.18,0000.14,-000.42,-000.08,-000.20,-000.66,-000.23,-000.50,20.0,26.0,15.4,10.7,0675.4,31.1
2021-07-19T16:46:00Z,00000200,00000000,0000.29,0000.32,0000.53,-000.23,0000.10,-000.08,0000.70,0000.66,0000.41,20.0,26.0,15.3,10.7,0675.4,31.1
2021-07-19T16:47:00Z,00000200,00000000,0000.55,0000.36,0000.41,-000.17,-000.24,-000.02,0000.05,-000.05,0000.12,20.0,26.0,15.4,10.8,0675.4,31.1
2021-07-19T16:48:00Z,00000200,00000000,0000.27,0000.26,0000.27,0000.30,0000.07,0000.06,-000.24,-000.19,-000.03,20.0,26.0,15.4,10.8,0675.4,31.1
2021-07-19T16:49:00Z,00000200,00000000,0001.20,0000.38,0000.34,0000.20,0000.07,0000.09,0000.09,-000.02,0000.05,20.0,26.0,15.4,10.8,0675.4,31.1
2021-07-19T16:50:00Z,00000200,00000000,0000.66,0000.38,0000.34,0000.03,-000.13,-000.24,0000.41,0000.06,0000.36,20.0,26.0,15.3,10.7,0675.4,31.1
2021-07-19T16:51:00Z,00000200,00000000,0000.67,0000.56,0000.23,0000.29,0000.33,-000.14,-000.11,0000.07,-000.18,20.0,26.0,15.5,10.9,0675.4,31.1
2021-07-19T16:52:00Z,00000200,00000000,0000.98,0000.29,-000.00,0000.70,-000.09,-000.07,0000.00,0000.30,-000.06,20.0,26.0,15.6,10.9,0675.4,31.1
2021-07-19T16:53:00Z,00000200,00000000,0000.72,0000.13,0000.24,-000.31,-000.02,0000.49,-000.05,-000.25,-000.06,20.0,26.0,15.6,10.9,0675.4,31.1
2021-07-19T16:54:00Z,00000200,00000000,0000.46,0000.64,0000.21,-000.30,0000.28,-000.45,0000.07,0000.04,0000.13,20.0,25.9,15.5,10.8,0675.4,31.1
2021-07-19T16:55:00Z,00000200,00000000,0001.39,0000.13,0000.21,-000.19,0000.18,0000.01,0000.01,0000.11,-000.12,20.0,26.0,15.5,10.8,0675.4,31.1
2021-07-19T16:56:00Z,00000200,00000000,0001.13,0000.25,-000.00,0000.09,0000.38,-000.19,0000.27,0000.27,0000.52,20.0,26.0,15.6,10.9,0675.4,31.1
2021-07-19T16:57:00Z,00000200,40000000,,,,,,,-000.42,0000.03,-000.33,20.1,26.0,15.9,11.1,0675.5,31.1
2021-07-19T16:58:00Z,00000200,60000000,,,,,,,0000.11,-000.38,0000.08,19.9,26.1,15.4,10.6,0674.5,31.1
2021-07-19T16:59:00Z,00000200,20000000,,,,,,,-000.18,-000.36,-000.28,19.9,26.2,15.4,10.5,0674.4,31.1
